| time (UTC) | temp C | wind direction | speed KPH | gust KPH | rain 1hr cm | rain 24hr cm | rain mn cm | humidity % | barometer mb |
| 20260507085506 | 0 | 0 | 0.0 | 3.2 | 0.00 | 0.00 | 0.00 | 61 | 1026.1 |
| 20260507085006 | 0 | 0 | 0.0 | 0.0 | 0.00 | 0.00 | 0.00 | 60 | 1026.0 |
| 20260507084510 | 0 | 0 | 0.0 | 3.2 | 0.00 | 0.00 | 0.00 | 61 | 1026.1 |
| 20260507084505 | 0 | 0 | 0.0 | 3.2 | 0.00 | 0.00 | 0.00 | 61 | 1026.1 |
| 20260507084006 | 0 | 0 | 0.0 | 3.2 | 0.00 | 0.00 | 0.00 | 61 | 1026.0 |
| 20260507082005 | 0 | 0 | 0.0 | 4.8 | 0.00 | 0.00 | 0.00 | 61 | 1026.1 |
| 20260507081549 | 0 | 0 | 0.0 | 4.8 | 0.00 | 0.00 | 0.00 | 61 | 1026.2 |
| 20260507081506 | 0 | 0 | 0.0 | 4.8 | 0.00 | 0.00 | 0.00 | 61 | 1026.2 |
| 20260507081110 | 0 | 0 | 0.0 | 4.8 | 0.00 | 0.00 | 0.00 | 60 | 1026.2 |
| 20260507081006 | 0 | 0 | 0.0 | 4.8 | 0.00 | 0.00 | 0.00 | 60 | 1026.2 |
| 20260507080015 | 0 | 292 | 4.8 | 6.4 | 0.00 | 0.00 | 0.00 | 58 | 1026.0 |
| 20260507075552 | 0 | 293 | 1.6 | 6.4 | 0.00 | 0.00 | 0.00 | 59 | 1026.0 |
| 20260507075505 | 0 | 293 | 1.6 | 6.4 | 0.00 | 0.00 | 0.00 | 59 | 1026.0 |
| 20260507075005 | 1 | 66 | 1.6 | 6.4 | 0.00 | 0.00 | 0.00 | 57 | 1025.9 |
| 20260507074507 | 1 | 13 | 1.6 | 6.4 | 0.00 | 0.00 | 0.00 | 56 | 1026.0 |
| 20260507073515 | 1 | 327 | 3.2 | 8.0 | 0.00 | 0.00 | 0.00 | 55 | 1026.1 |
| 20260507073005 | 1 | 320 | 4.8 | 8.0 | 0.00 | 0.00 | 0.00 | 54 | 1026.1 |
| 20260507071006 | 3 | 0 | 0.0 | 3.2 | 0.00 | 0.00 | 0.00 | 54 | 1026.0 |
| 20260507060006 | 4 | 0 | 0.0 | 4.8 | 0.00 | 0.00 | 0.00 | 49 | 1025.3 |
| 20260507055548 | 5 | 0 | 0.0 | 3.2 | 0.00 | 0.00 | 0.00 | 51 | 1025.1 |
| 20260507055506 | 5 | 0 | 0.0 | 3.2 | 0.00 | 0.00 | 0.00 | 51 | 1025.1 |
| 20260507055048 | 4 | 0 | 0.0 | 3.2 | 0.00 | 0.00 | 0.00 | 51 | 1025.0 |
| 20260507055005 | 4 | 0 | 0.0 | 3.2 | 0.00 | 0.00 | 0.00 | 51 | 1025.0 |
| 20260507054305 | 5 | 0 | 0.0 | 4.8 | 0.00 | 0.00 | 0.00 | 51 | 1025.0 |
| 20260507051305 | 5 | 0 | 0.0 | 3.2 | 0.00 | 0.00 | 0.00 | 49 | 1024.8 |
| 20260507050305 | 6 | 0 | 0.0 | 3.2 | 0.00 | 0.00 | 0.00 | 48 | 1024.5 |
| 20260507045805 | 6 | 0 | 0.0 | 3.2 | 0.00 | 0.00 | 0.00 | 47 | 1024.5 |
| 20260507045307 | 6 | 0 | 0.0 | 1.6 | 0.00 | 0.00 | 0.00 | 46 | 1024.4 |
| 20260507044805 | 6 | 0 | 0.0 | 0.0 | 0.00 | 0.00 | 0.00 | 45 | 1024.4 |
| 20260507043806 | 7 | 0 | 0.0 | 1.6 | 0.00 | 0.00 | 0.00 | 44 | 1024.4 |
| 20260507043305 | 7 | 0 | 0.0 | 1.6 | 0.00 | 0.00 | 0.00 | 43 | 1024.3 |
| 20260507042307 | 7 | 0 | 0.0 | 6.4 | 0.00 | 0.00 | 0.00 | 44 | 1024.1 |
| 20260507041305 | 8 | 337 | 1.6 | 6.4 | 0.00 | 0.00 | 0.00 | 42 | 1024.2 |
| 20260507040805 | 8 | 328 | 1.6 | 6.4 | 0.00 | 0.00 | 0.00 | 42 | 1024.2 |
| 20260507040305 | 8 | 0 | 0.0 | 3.2 | 0.00 | 0.00 | 0.00 | 42 | 1024.2 |
| 20260507034806 | 9 | 0 | 0.0 | 3.2 | 0.00 | 0.00 | 0.00 | 41 | 1024.1 |
| 20260507034305 | 9 | 0 | 0.0 | 4.8 | 0.00 | 0.00 | 0.00 | 40 | 1024.2 |
| 20260507033805 | 10 | 342 | 3.2 | 4.8 | 0.00 | 0.00 | 0.00 | 39 | 1024.0 |
| 20260507032306 | 12 | 339 | 3.2 | 8.0 | 0.00 | 0.00 | 0.00 | 35 | 1024.0 |
| 20260507031308 | 12 | 323 | 3.2 | 6.4 | 0.00 | 0.00 | 0.00 | 34 | 1023.9 |
| 20260507030805 | 12 | 320 | 3.2 | 6.4 | 0.00 | 0.00 | 0.00 | 33 | 1023.9 |
| 20260507024805 | 13 | 0 | 0.0 | 6.4 | 0.00 | 0.00 | 0.00 | 32 | 1023.8 |
| 20260507024305 | 13 | 320 | 1.6 | 8.0 | 0.00 | 0.00 | 0.00 | 32 | 1023.8 |
| 20260507022805 | 14 | 297 | 4.8 | 8.0 | 0.00 | 0.00 | 0.00 | 31 | 1023.3 |
| 20260507022306 | 14 | 297 | 4.8 | 11.3 | 0.00 | 0.00 | 0.00 | 31 | 1023.2 |
| 20260507021805 | 14 | 288 | 6.4 | 14.5 | 0.00 | 0.00 | 0.00 | 30 | 1023.2 |
| 20260507021304 | 15 | 286 | 6.4 | 16.1 | 0.00 | 0.00 | 0.00 | 30 | 1023.1 |
| 20260507020805 | 15 | 295 | 9.7 | 16.1 | 0.00 | 0.00 | 0.00 | 29 | 1022.5 |
| 20260507014805 | 16 | 287 | 9.7 | 19.3 | 0.00 | 0.00 | 0.00 | 28 | 1022.6 |
| 20260507013305 | 16 | 294 | 14.5 | 19.3 | 0.00 | 0.00 | 0.00 | 27 | 1022.4 |
| 20260507012805 | 16 | 275 | 14.5 | 19.3 | 0.00 | 0.00 | 0.00 | 27 | 1022.3 |
| 20260507012306 | 16 | 264 | 11.3 | 24.1 | 0.00 | 0.00 | 0.00 | 27 | 1022.4 |
| 20260507011805 | 16 | 292 | 9.7 | 25.7 | 0.00 | 0.00 | 0.00 | 26 | 1022.5 |
| 20260507010805 | 16 | 329 | 19.3 | 24.1 | 0.00 | 0.00 | 0.00 | 26 | 1022.7 |
| 20260507010305 | 16 | 298 | 17.7 | 22.5 | 0.00 | 0.00 | 0.00 | 26 | 1022.7 |
| 20260507005805 | 16 | 284 | 4.8 | 22.5 | 0.00 | 0.00 | 0.00 | 26 | 1022.6 |
| 20260507005306 | 16 | 300 | 16.1 | 27.4 | 0.00 | 0.00 | 0.00 | 26 | 1022.6 |
| 20260507004804 | 16 | 306 | 20.9 | 29.0 | 0.00 | 0.00 | 0.00 | 26 | 1022.6 |
| 20260507003805 | 17 | 267 | 12.9 | 24.1 | 0.00 | 0.00 | 0.00 | 25 | 1022.5 |
| 20260507003304 | 17 | 333 | 17.7 | 24.1 | 0.00 | 0.03 | 0.00 | 26 | 1022.5 |
| 20260507002804 | 17 | 307 | 12.9 | 25.7 | 0.00 | 0.03 | 0.00 | 26 | 1021.8 |
| 20260507002306 | 17 | 326 | 3.2 | 25.7 | 0.00 | 0.03 | 0.00 | 25 | 1021.8 |
| 20260507001806 | 17 | 333 | 4.8 | 24.1 | 0.00 | 0.03 | 0.00 | 25 | 1021.9 |
| 20260507001305 | 17 | 340 | 8.0 | 25.7 | 0.00 | 0.03 | 0.00 | 25 | 1021.9 |
| 20260507000805 | 17 | 301 | 14.5 | 27.4 | 0.00 | 0.03 | 0.00 | 24 | 1021.9 |
| 20260506235340 | 17 | 294 | 24.1 | 32.2 | 0.00 | 0.03 | 0.00 | 25 | 1022.0 |
| 20260506234840 | 17 | 329 | 11.3 | 25.7 | 0.00 | 0.03 | 0.00 | 24 | 1021.9 |
| 20260506233841 | 17 | 292 | 16.1 | 25.7 | 0.00 | 0.03 | 0.00 | 24 | 1022.0 |
| 20260506233216 | 17 | 293 | 11.3 | 30.6 | 0.00 | 0.03 | 0.00 | 24 | 1022.1 |
| 20260506232716 | 17 | 319 | 24.1 | 33.8 | 0.00 | 0.03 | 0.00 | 24 | 1022.3 |
| 20260506232215 | 17 | 283 | 20.9 | 33.8 | 0.00 | 0.03 | 0.00 | 23 | 1022.1 |
| 20260506230716 | 17 | 269 | 17.7 | 27.4 | 0.00 | 0.03 | 0.00 | 23 | 1022.3 |
| 20260506225715 | 18 | 311 | 27.4 | 35.4 | 0.00 | 0.03 | 0.00 | 23 | 1021.8 |
| 20260506224716 | 17 | 287 | 14.5 | 25.7 | 0.00 | 0.03 | 0.00 | 21 | 1021.7 |
| 20260506224217 | 17 | 268 | 8.0 | 29.0 | 0.00 | 0.03 | 0.00 | 22 | 1021.8 |
| 20260506223716 | 17 | 263 | 14.5 | 29.0 | 0.00 | 0.03 | 0.00 | 22 | 1021.7 |
| 20260506223216 | 18 | 326 | 14.5 | 29.0 | 0.00 | 0.03 | 0.00 | 21 | 1021.7 |
| 20260506222216 | 18 | 301 | 19.3 | 33.8 | 0.00 | 0.03 | 0.00 | 22 | 1021.9 |
| 20260506221418 | 17 | 294 | 27.4 | 32.2 | 0.00 | 0.03 | 0.00 | 21 | 1021.9 |
| 20260506221315 | 17 | 309 | 22.5 | 32.2 | 0.00 | 0.03 | 0.00 | 23 | 1022.2 |
| 20260506220917 | 17 | 309 | 22.5 | 32.2 | 0.00 | 0.03 | 0.00 | 23 | 1022.2 |
| 20260506215917 | 17 | 320 | 22.5 | 41.8 | 0.00 | 0.03 | 0.00 | 22 | 1022.4 |
| 20260506215327 | 17 | 340 | 19.3 | 33.8 | 0.00 | 0.05 | 0.00 | 24 | 1022.3 |
| 20260506214918 | 17 | 340 | 19.3 | 33.8 | 0.00 | 0.05 | 0.00 | 24 | 1022.3 |
| 20260506214316 | 17 | 306 | 27.4 | 37.0 | 0.00 | 0.05 | 0.00 | 26 | 1022.4 |
| 20260506213919 | 17 | 306 | 27.4 | 37.0 | 0.00 | 0.05 | 0.00 | 26 | 1022.4 |
| 20260506213705 | 17 | 286 | 16.1 | 35.4 | 0.00 | 0.05 | 0.00 | 26 | 1022.5 |
| 20260506213419 | 17 | 286 | 16.1 | 35.4 | 0.00 | 0.05 | 0.00 | 26 | 1022.5 |
| 20260506213221 | 17 | 295 | 25.7 | 33.8 | 0.00 | 0.05 | 0.00 | 26 | 1022.5 |
| 20260506212917 | 17 | 295 | 25.7 | 33.8 | 0.00 | 0.05 | 0.00 | 26 | 1022.5 |
| 20260506212254 | 17 | 309 | 17.7 | 41.8 | 0.00 | 0.05 | 0.00 | 25 | 1022.7 |
| 20260506211918 | 17 | 309 | 17.7 | 41.8 | 0.00 | 0.05 | 0.00 | 25 | 1022.7 |
| 20260506203918 | 16 | 329 | 16.1 | 37.0 | 0.00 | 0.05 | 0.00 | 26 | 1022.1 |
| 20260506203704 | 16 | 302 | 19.3 | 45.1 | 0.00 | 0.05 | 0.00 | 27 | 1022.1 |
| 20260506203417 | 16 | 302 | 19.3 | 45.1 | 0.00 | 0.05 | 0.00 | 27 | 1022.1 |
| 20260506201252 | 15 | 298 | 25.7 | 35.4 | 0.00 | 0.05 | 0.00 | 32 | 1022.2 |
| 20260506200948 | 15 | 298 | 25.7 | 35.4 | 0.00 | 0.05 | 0.00 | 32 | 1022.2 |
| 20260506200917 | 15 | 298 | 25.7 | 35.4 | 0.00 | 0.05 | 0.00 | 32 | 1022.2 |
| 20260506200417 | 15 | 274 | 14.5 | 30.6 | 0.00 | 0.05 | 0.00 | 29 | 1022.1 |
| 20260506195744 | 15 | 331 | 25.7 | 33.8 | 0.00 | 0.05 | 0.00 | 28 | 1022.2 |
| 20260506195417 | 15 | 331 | 25.7 | 33.8 | 0.00 | 0.05 | 0.00 | 28 | 1022.2 |
| 20260506195226 | 15 | 291 | 4.8 | 19.3 | 0.00 | 0.05 | 0.00 | 29 | 1022.3 |
| 20260506194917 | 15 | 291 | 4.8 | 19.3 | 0.00 | 0.05 | 0.00 | 29 | 1022.3 |
| 20260506191457 | 15 | 297 | 20.9 | 33.8 | 0.00 | 0.05 | 0.00 | 25 | 1022.7 |
| 20260506191205 | 15 | 297 | 20.9 | 33.8 | 0.00 | 0.05 | 0.00 | 25 | 1022.7 |
| 20260506190158 | 16 | 323 | 24.1 | 37.0 | 0.00 | 0.05 | 0.00 | 28 | 1022.7 |
| 20260506185704 | 16 | 323 | 24.1 | 37.0 | 0.00 | 0.05 | 0.00 | 28 | 1022.7 |
| 20260506185205 | 15 | 291 | 24.1 | 37.0 | 0.00 | 0.05 | 0.00 | 30 | 1022.6 |
| 20260506185019 | 15 | 291 | 14.5 | 29.0 | 0.00 | 0.05 | 0.00 | 32 | 1022.6 |
| 20260506184705 | 15 | 291 | 14.5 | 29.0 | 0.00 | 0.05 | 0.00 | 32 | 1022.6 |
| 20260506184205 | 14 | 277 | 19.3 | 29.0 | 0.00 | 0.05 | 0.00 | 29 | 1022.7 |
| 20260506183704 | 13 | 320 | 19.3 | 29.0 | 0.00 | 0.05 | 0.00 | 31 | 1022.8 |
| 20260506182014 | 14 | 314 | 14.5 | 32.2 | 0.00 | 0.05 | 0.00 | 33 | 1023.1 |
| 20260506181705 | 14 | 314 | 14.5 | 32.2 | 0.00 | 0.05 | 0.00 | 33 | 1023.1 |
| 20260506175926 | 13 | 314 | 19.3 | 30.6 | 0.00 | 0.05 | 0.00 | 35 | 1023.0 |
| 20260506175704 | 13 | 314 | 19.3 | 30.6 | 0.00 | 0.05 | 0.00 | 35 | 1023.0 |
| 20260506175503 | 13 | 327 | 11.3 | 29.0 | 0.00 | 0.05 | 0.00 | 35 | 1023.1 |
| 20260506175204 | 13 | 327 | 11.3 | 29.0 | 0.00 | 0.05 | 0.00 | 35 | 1023.1 |
| 20260506174946 | 12 | 269 | 14.5 | 32.2 | 0.00 | 0.05 | 0.00 | 37 | 1023.2 |
| 20260506174704 | 12 | 269 | 14.5 | 32.2 | 0.00 | 0.05 | 0.00 | 37 | 1023.2 |
| 20260506174205 | 12 | 253 | 17.7 | 32.2 | 0.00 | 0.05 | 0.00 | 37 | 1023.0 |
| 20260506173928 | 13 | 278 | 17.7 | 30.6 | 0.00 | 0.05 | 0.00 | 37 | 1023.2 |
| 20260506173704 | 13 | 278 | 17.7 | 30.6 | 0.00 | 0.05 | 0.00 | 37 | 1023.2 |
| 20260506172915 | 13 | 270 | 17.7 | 30.6 | 0.00 | 0.05 | 0.00 | 36 | 1022.5 |
| 20260506172704 | 13 | 270 | 17.7 | 30.6 | 0.00 | 0.05 | 0.00 | 36 | 1022.5 |
| 20260506172204 | 12 | 284 | 20.9 | 30.6 | 0.00 | 0.05 | 0.00 | 37 | 1022.5 |
| 20260506171846 | 12 | 277 | 16.1 | 30.6 | 0.00 | 0.05 | 0.00 | 36 | 1022.5 |
| 20260506171704 | 12 | 277 | 16.1 | 30.6 | 0.00 | 0.05 | 0.00 | 36 | 1022.5 |
| 20260506171205 | 12 | 313 | 19.3 | 30.6 | 0.00 | 0.05 | 0.00 | 38 | 1022.5 |
| 20260506165908 | 12 | 291 | 19.3 | 29.0 | 0.00 | 0.05 | 0.00 | 36 | 1022.4 |
| 20260506165705 | 12 | 291 | 19.3 | 29.0 | 0.00 | 0.05 | 0.00 | 36 | 1022.4 |
| 20260506165237 | 12 | 307 | 20.9 | 30.6 | 0.00 | 0.05 | 0.00 | 38 | 1022.5 |
| 20260506165204 | 12 | 307 | 20.9 | 30.6 | 0.00 | 0.05 | 0.00 | 38 | 1022.5 |
| 20260506164704 | 11 | 327 | 20.9 | 30.6 | 0.00 | 0.05 | 0.00 | 37 | 1022.6 |
| 20260506164204 | 11 | 308 | 16.1 | 30.6 | 0.00 | 0.05 | 0.00 | 38 | 1022.4 |
| 20260506164000 | 11 | 260 | 12.9 | 29.0 | 0.00 | 0.05 | 0.00 | 39 | 1022.1 |
| 20260506163704 | 11 | 260 | 12.9 | 29.0 | 0.00 | 0.05 | 0.00 | 39 | 1022.1 |
| 20260506163041 | 11 | 274 | 17.7 | 25.7 | 0.00 | 0.05 | 0.00 | 40 | 1022.3 |
| 20260506162704 | 11 | 274 | 17.7 | 25.7 | 0.00 | 0.05 | 0.00 | 40 | 1022.3 |
| 20260506162535 | 11 | 286 | 16.1 | 29.0 | 0.00 | 0.05 | 0.00 | 38 | 1022.3 |
| 20260506162204 | 11 | 286 | 16.1 | 29.0 | 0.00 | 0.05 | 0.00 | 38 | 1022.3 |
| 20260506161940 | 11 | 313 | 17.7 | 29.0 | 0.00 | 0.05 | 0.00 | 38 | 1022.1 |
| 20260506161748 | 11 | 313 | 17.7 | 29.0 | 0.00 | 0.05 | 0.00 | 38 | 1022.1 |
| 20260506161704 | 11 | 313 | 17.7 | 29.0 | 0.00 | 0.05 | 0.00 | 38 | 1022.1 |
| 20260506161204 | 11 | 304 | 19.3 | 25.7 | 0.00 | 0.05 | 0.00 | 40 | 1022.2 |
| 20260506160751 | 10 | 304 | 16.1 | 25.7 | 0.00 | 0.05 | 0.00 | 42 | 1022.3 |
| 20260506160704 | 10 | 304 | 16.1 | 25.7 | 0.00 | 0.05 | 0.00 | 42 | 1022.3 |
| 20260506155704 | 10 | 296 | 12.9 | 19.3 | 0.00 | 0.05 | 0.00 | 45 | 1022.5 |
| 20260506155204 | 9 | 285 | 9.7 | 17.7 | 0.00 | 0.05 | 0.00 | 46 | 1022.4 |
| 20260506154704 | 9 | 289 | 4.8 | 20.9 | 0.00 | 0.05 | 0.00 | 45 | 1022.4 |
| 20260506153704 | 8 | 291 | 4.8 | 17.7 | 0.00 | 0.05 | 0.00 | 46 | 1022.3 |
| 20260506153204 | 8 | 299 | 11.3 | 17.7 | 0.00 | 0.05 | 0.00 | 48 | 1022.4 |
| 20260506152204 | 7 | 282 | 6.4 | 12.9 | 0.00 | 0.05 | 0.00 | 59 | 1022.4 |
| 20260506150804 | 5 | 0 | 0.0 | 3.2 | 0.00 | 0.05 | 0.00 | 68 | 1022.5 |
| 20260506150504 | 5 | 0 | 0.0 | 3.2 | 0.00 | 0.05 | 0.00 | 68 | 1022.5 |
| 20260506145004 | 3 | 0 | 0.0 | 3.2 | 0.00 | 0.05 | 0.00 | 80 | 1022.5 |
| 20260506144403 | 3 | 0 | 0.0 | 3.2 | 0.00 | 0.05 | 0.00 | 79 | 1022.4 |
| 20260506143403 | 1 | 0 | 0.0 | 0.0 | 0.00 | 0.05 | 0.00 | 82 | 1022.2 |
| 20260506141005 | 0 | 0 | 0.0 | 0.0 | 0.00 | 0.05 | 0.00 | 85 | 1022.8 |
| 20260506140723 | -1 | 0 | 0.0 | 0.0 | 0.00 | 0.05 | 0.00 | 88 | 1022.4 |
| 20260506140505 | -1 | 0 | 0.0 | 0.0 | 0.00 | 0.05 | 0.00 | 88 | 1022.4 |
| 20260506140155 | -2 | 0 | 0.0 | 0.0 | 0.00 | 0.05 | 0.00 | 88 | 1022.4 |
| 20260506140013 | -2 | 0 | 0.0 | 0.0 | 0.00 | 0.05 | 0.00 | 88 | 1022.4 |
| 20260506134127 | -2 | 0 | 0.0 | 0.0 | 0.00 | 0.05 | 0.00 | 87 | 1022.1 |
| 20260506134005 | -2 | 0 | 0.0 | 0.0 | 0.00 | 0.05 | 0.00 | 87 | 1022.1 |
| 20260506133630 | -2 | 0 | 0.0 | 0.0 | 0.00 | 0.05 | 0.00 | 87 | 1022.4 |
| 20260506133505 | -2 | 0 | 0.0 | 0.0 | 0.00 | 0.05 | 0.00 | 87 | 1022.4 |
| 20260506133133 | -3 | 0 | 0.0 | 1.6 | 0.00 | 0.05 | 0.00 | 86 | 1022.2 |
| 20260506133005 | -3 | 0 | 0.0 | 1.6 | 0.00 | 0.05 | 0.00 | 86 | 1022.2 |
| 20260506132505 | -3 | 0 | 0.0 | 1.6 | 0.00 | 0.05 | 0.00 | 86 | 1022.1 |
| 20260506132005 | -3 | 0 | 0.0 | 1.6 | 0.00 | 0.05 | 0.00 | 87 | 1022.0 |
| 20260506131127 | -3 | 0 | 0.0 | 0.0 | 0.00 | 0.05 | 0.00 | 90 | 1022.0 |
| 20260506131005 | -3 | 0 | 0.0 | 0.0 | 0.00 | 0.05 | 0.00 | 90 | 1022.0 |
| 20260506130505 | -4 | 0 | 0.0 | 0.0 | 0.00 | 0.05 | 0.00 | 91 | 1021.9 |
| 20260506130016 | -5 | 0 | 0.0 | 0.0 | 0.00 | 0.05 | 0.00 | 91 | 1021.8 |
| 20260506125505 | -5 | 0 | 0.0 | 0.0 | 0.00 | 0.05 | 0.00 | 90 | 1021.9 |
| 20260506125005 | -5 | 0 | 0.0 | 0.0 | 0.00 | 0.05 | 0.00 | 90 | 1021.7 |
| 20260506124005 | -5 | 0 | 0.0 | 3.2 | 0.00 | 0.05 | 0.00 | 89 | 1021.7 |
| 20260506123505 | -5 | 0 | 0.0 | 3.2 | 0.00 | 0.05 | 0.00 | 89 | 1021.6 |
| 20260506123005 | -5 | 0 | 0.0 | 3.2 | 0.00 | 0.05 | 0.00 | 90 | 1021.6 |
| 20260506122536 | -5 | 0 | 0.0 | 3.2 | 0.00 | 0.05 | 0.00 | 90 | 1021.4 |
| 20260506122505 | -5 | 0 | 0.0 | 3.2 | 0.00 | 0.05 | 0.00 | 90 | 1021.4 |
| 20260506122005 | -5 | 311 | 1.6 | 3.2 | 0.00 | 0.05 | 0.00 | 90 | 1021.4 |
| 20260506121005 | -5 | 0 | 0.0 | 0.0 | 0.00 | 0.05 | 0.00 | 90 | 1021.2 |
| 20260506120006 | -4 | 0 | 0.0 | 0.0 | 0.00 | 0.05 | 0.00 | 91 | 1021.1 |
| 20260506115005 | -4 | 0 | 0.0 | 1.6 | 0.00 | 0.05 | 0.00 | 90 | 1021.0 |
| 20260506114036 | -4 | 0 | 0.0 | 0.0 | 0.00 | 0.05 | 0.00 | 90 | 1021.1 |
| 20260506114005 | -4 | 0 | 0.0 | 0.0 | 0.00 | 0.05 | 0.00 | 90 | 1021.1 |
| 20260506113505 | -3 | 0 | 0.0 | 0.0 | 0.00 | 0.05 | 0.00 | 91 | 1021.1 |
| 20260506113344 | -3 | 0 | 0.0 | 0.0 | 0.00 | 0.05 | 0.00 | 91 | 1021.6 |
| 20260506113005 | -3 | 0 | 0.0 | 0.0 | 0.00 | 0.05 | 0.00 | 91 | 1021.6 |
| 20260506112505 | -3 | 0 | 0.0 | 0.0 | 0.00 | 0.05 | 0.00 | 92 | 1021.6 |
| 20260506112005 | -4 | 0 | 0.0 | 0.0 | 0.00 | 0.05 | 0.00 | 91 | 1021.5 |
| 20260506111005 | -4 | 0 | 0.0 | 0.0 | 0.00 | 0.05 | 0.00 | 91 | 1021.3 |
| 20260506110505 | -3 | 0 | 0.0 | 0.0 | 0.00 | 0.05 | 0.00 | 90 | 1021.3 |
| 20260506110042 | -3 | 0 | 0.0 | 0.0 | 0.00 | 0.05 | 0.00 | 90 | 1021.3 |
| 20260506110006 | -3 | 0 | 0.0 | 0.0 | 0.00 | 0.05 | 0.00 | 90 | 1021.3 |
| 20260506105505 | -3 | 0 | 0.0 | 0.0 | 0.00 | 0.05 | 0.00 | 90 | 1021.2 |
| 20260506105005 | -3 | 0 | 0.0 | 0.0 | 0.00 | 0.05 | 0.00 | 90 | 1021.1 |
| 20260506104005 | -3 | 0 | 0.0 | 0.0 | 0.00 | 0.05 | 0.00 | 89 | 1021.1 |
| 20260506103130 | -3 | 0 | 0.0 | 0.0 | 0.00 | 0.05 | 0.00 | 89 | 1020.9 |
| 20260506103005 | -3 | 0 | 0.0 | 0.0 | 0.00 | 0.05 | 0.00 | 89 | 1020.9 |
| 20260506102505 | -3 | 0 | 0.0 | 0.0 | 0.00 | 0.05 | 0.00 | 90 | 1020.7 |
| 20260506101505 | -3 | 0 | 0.0 | 0.0 | 0.00 | 0.05 | 0.00 | 91 | 1020.7 |
| 20260506101005 | -3 | 0 | 0.0 | 0.0 | 0.00 | 0.05 | 0.00 | 90 | 1020.6 |
| 20260506100506 | -3 | 0 | 0.0 | 0.0 | 0.00 | 0.05 | 0.00 | 89 | 1020.5 |
| 20260506100013 | -3 | 0 | 0.0 | 0.0 | 0.00 | 0.05 | 0.00 | 89 | 1020.5 |
| 20260506095005 | -3 | 0 | 0.0 | 0.0 | 0.00 | 0.05 | 0.00 | 89 | 1020.2 |
| 20260506094505 | -3 | 0 | 0.0 | 0.0 | 0.00 | 0.05 | 0.00 | 89 | 1020.2 |
| 20260506094148 | -3 | 0 | 0.0 | 0.0 | 0.00 | 0.05 | 0.00 | 89 | 1020.1 |
| 20260506094004 | -3 | 0 | 0.0 | 0.0 | 0.00 | 0.05 | 0.00 | 89 | 1020.1 |
| 20260506093505 | -3 | 0 | 0.0 | 0.0 | 0.00 | 0.05 | 0.00 | 89 | 1020.0 |
| 20260506092645 | -2 | 0 | 0.0 | 0.0 | 0.00 | 0.05 | 0.00 | 90 | 1020.0 |
| 20260506092505 | -2 | 0 | 0.0 | 0.0 | 0.00 | 0.05 | 0.00 | 90 | 1020.0 |
| 20260506092005 | -2 | 0 | 0.0 | 0.0 | 0.00 | 0.05 | 0.00 | 90 | 1019.9 |
| 20260506091505 | -2 | 0 | 0.0 | 0.0 | 0.00 | 0.05 | 0.00 | 90 | 1020.6 |
| 20260506091005 | -3 | 0 | 0.0 | 0.0 | 0.00 | 0.05 | 0.00 | 91 | 1020.6 |
| 20260506090012 | -3 | 0 | 0.0 | 0.0 | 0.00 | 0.05 | 0.00 | 90 | 1020.5 |